• In Russia
  • List of Countries
  • For 7 days
  • Water Temperature
  • Satellite Maps
  • Weather Map
  • Weather Widgets
  • user-avatar
    Login

    Hourly Weather San Juan

    Today, 24 February, Saturday

    Time Temperature Precipitation Wind Pressure Humidity
    00:00 +20°C° 0.3 mm 4 mps 708 mmHg 74%
    01:00 +20°C° 0 mm 3 mps 708 mmHg 73%
    02:00 +20°C° 0.1 mm 3 mps 708 mmHg 73%
    03:00 +20°C° 0.1 mm 2 mps 707 mmHg 74%
    04:00 +20°C° 0.1 mm 2 mps 707 mmHg 74%
    05:00 +20°C° 0 mm 2 mps 707 mmHg 74%
    06:00 +20°C° 0 mm 2 mps 707 mmHg 73%
    07:00 +20°C° 0 mm 2 mps 708 mmHg 70%
    08:00 +21°C° 0 mm 2 mps 707 mmHg 68%
    09:00 +21°C° 0 mm 2 mps 707 mmHg 65%
    10:00 +22°C° 0 mm 3 mps 707 mmHg 63%
    11:00 +24°C° 0 mm 3 mps 707 mmHg 59%
    12:00 +25°C° 0 mm 3 mps 707 mmHg 56%
    13:00 +26°C° 0 mm 3 mps 706 mmHg 52%
    14:00 +27°C° 0 mm 3 mps 706 mmHg 51%
    15:00 +27°C° 0 mm 3 mps 706 mmHg 49%
    16:00 +27°C° 0 mm 3 mps 706 mmHg 47%
    17:00 +27°C° 0.1 mm 2 mps 706 mmHg 49%
    18:00 +26°C° 0.1 mm 2 mps 706 mmHg 50%
    19:00 +26°C° 0.1 mm 2 mps 707 mmHg 52%
    20:00 +25°C° 0.4 mm 2 mps 707 mmHg 54%
    21:00 +25°C° 0.4 mm 2 mps 707 mmHg 56%
    22:00 +24°C° 0.4 mm 2 mps 708 mmHg 59%
    23:00 +24°C° 0.3 mm 1 mps 707 mmHg 60%

    Tomorrow, 25 February, Sunday

    Time Temperature Precipitation Wind Pressure Humidity
    00:00 +24°C° 0.3 mm 1 mps 707 mmHg 61%
    01:00 +23°C° 0.3 mm 1 mps 707 mmHg 63%
    02:00 +23°C° 0.2 mm 1 mps 707 mmHg 64%
    03:00 +23°C° 0.2 mm 1 mps 707 mmHg 65%
    04:00 +23°C° 0.2 mm 1 mps 707 mmHg 67%
    05:00 +23°C° 0 mm 1 mps 707 mmHg 65%
    06:00 +23°C° 0 mm 1 mps 708 mmHg 63%
    07:00 +24°C° 0 mm 1 mps 708 mmHg 60%
    08:00 +25°C° 0.1 mm 1 mps 708 mmHg 55%
    09:00 +26°C° 0.1 mm 1 mps 708 mmHg 50%
    10:00 +27°C° 0.1 mm 1 mps 708 mmHg 45%
    11:00 +28°C° 0.1 mm 1 mps 707 mmHg 42%
    12:00 +29°C° 0.1 mm 1 mps 707 mmHg 39%
    13:00 +30°C° 0.1 mm 2 mps 706 mmHg 37%
    14:00 +31°C° 0.1 mm 2 mps 706 mmHg 36%
    15:00 +31°C° 0.1 mm 2 mps 706 mmHg 34%
    16:00 +31°C° 0.1 mm 2 mps 705 mmHg 33%
    17:00 +30°C° 0.3 mm 2 mps 706 mmHg 35%
    18:00 +30°C° 0.3 mm 2 mps 706 mmHg 36%
    19:00 +29°C° 0.3 mm 2 mps 706 mmHg 38%
    20:00 +29°C° 0.3 mm 2 mps 707 mmHg 39%
    21:00 +28°C° 0.3 mm 2 mps 707 mmHg 40%
    22:00 +28°C° 0.3 mm 2 mps 707 mmHg 42%
    23:00 +27°C° 0.2 mm 2 mps 707 mmHg 43%

    Day after tomorrow, 26 February, Monday

    Time Temperature Precipitation Wind Pressure Humidity
    00:00 +27°C° 0.2 mm 2 mps 707 mmHg 44%
    01:00 +26°C° 0.2 mm 1 mps 706 mmHg 45%
    02:00 +26°C° 0.1 mm 1 mps 706 mmHg 47%
    03:00 +26°C° 0.1 mm 1 mps 706 mmHg 48%
    04:00 +25°C° 0.1 mm 1 mps 706 mmHg 50%
    05:00 +26°C° 0 mm 2 mps 706 mmHg 49%
    06:00 +26°C° 0 mm 2 mps 706 mmHg 47%
    07:00 +27°C° 0 mm 2 mps 706 mmHg 46%
    08:00 +28°C° 0.1 mm 2 mps 706 mmHg 42%
    09:00 +29°C° 0.1 mm 2 mps 706 mmHg 39%
    10:00 +30°C° 0.1 mm 2 mps 706 mmHg 35%
    11:00 +31°C° 0.1 mm 2 mps 705 mmHg 33%
    12:00 +32°C° 0.1 mm 2 mps 705 mmHg 31%
    13:00 +34°C° 0.1 mm 3 mps 704 mmHg 29%
    14:00 +34°C° 0.2 mm 3 mps 703 mmHg 28%
    15:00 +35°C° 0.2 mm 3 mps 703 mmHg 27%
    16:00 +35°C° 0.2 mm 3 mps 702 mmHg 27%
    17:00 +34°C° 0.6 mm 3 mps 703 mmHg 29%
    18:00 +33°C° 0.6 mm 3 mps 703 mmHg 31%
    19:00 +31°C° 0.6 mm 2 mps 703 mmHg 33%
    20:00 +31°C° 0.6 mm 3 mps 704 mmHg 34%
    21:00 +30°C° 0.6 mm 3 mps 704 mmHg 36%
    22:00 +30°C° 0.6 mm 3 mps 704 mmHg 38%
    23:00 +30°C° 0.2 mm 3 mps 704 mmHg 39%

    27 February, Tuesday

    Time Temperature Precipitation Wind Pressure Humidity
    00:00 +29°C° 0.2 mm 3 mps 704 mmHg 41%
    01:00 +29°C° 0.2 mm 2 mps 704 mmHg 42%
    02:00 +28°C° 0.1 mm 2 mps 703 mmHg 43%
    03:00 +28°C° 0.1 mm 2 mps 703 mmHg 44%
    04:00 +27°C° 0.1 mm 2 mps 703 mmHg 44%
    05:00 +28°C° 0.3 mm 2 mps 704 mmHg 43%
    06:00 +28°C° 0.3 mm 2 mps 704 mmHg 42%
    07:00 +28°C° 0.3 mm 2 mps 705 mmHg 41%
    08:00 +29°C° 0.4 mm 3 mps 705 mmHg 40%
    09:00 +29°C° 0.4 mm 4 mps 705 mmHg 38%
    10:00 +30°C° 0.4 mm 5 mps 705 mmHg 37%
    11:00 +30°C° 0.9 mm 5 mps 705 mmHg 38%
    12:00 +30°C° 0.9 mm 5 mps 704 mmHg 39%
    13:00 +30°C° 0.9 mm 4 mps 704 mmHg 39%
    14:00 +30°C° 0.7 mm 5 mps 704 mmHg 41%
    15:00 +30°C° 0.7 mm 5 mps 703 mmHg 43%
    16:00 +30°C° 0.7 mm 6 mps 703 mmHg 45%
    17:00 +28°C° 1.1 mm 6 mps 704 mmHg 50%
    18:00 +27°C° 1.1 mm 6 mps 704 mmHg 56%
    19:00 +26°C° 1.1 mm 6 mps 705 mmHg 62%
    20:00 +24°C° 1.1 mm 6 mps 705 mmHg 65%
    21:00 +23°C° 1.1 mm 6 mps 706 mmHg 68%
    22:00 +22°C° 1.1 mm 6 mps 706 mmHg 71%
    23:00 +22°C° 1 mm 6 mps 706 mmHg 71%

    28 February, Wednesday

    Time Temperature Precipitation Wind Pressure Humidity
    00:00 +22°C° 1 mm 6 mps 706 mmHg 70%
    01:00 +21°C° 1 mm 5 mps 706 mmHg 70%
    02:00 +21°C° 0.4 mm 5 mps 706 mmHg 68%
    03:00 +21°C° 0.4 mm 4 mps 706 mmHg 67%
    04:00 +21°C° 0.4 mm 4 mps 706 mmHg 66%
    05:00 +21°C° 0.3 mm 4 mps 706 mmHg 66%
    06:00 +21°C° 0.3 mm 3 mps 707 mmHg 66%
    07:00 +21°C° 0.3 mm 3 mps 707 mmHg 66%
    08:00 +22°C° 0.9 mm 4 mps 707 mmHg 63%
    09:00 +22°C° 0.9 mm 4 mps 707 mmHg 61%
    10:00 +23°C° 0.9 mm 4 mps 707 mmHg 58%
    11:00 +23°C° 0.5 mm 4 mps 706 mmHg 55%
    12:00 +25°C° 0.5 mm 5 mps 706 mmHg 52%
    13:00 +25°C° 0.5 mm 5 mps 705 mmHg 49%
    14:00 +26°C° 0.1 mm 5 mps 705 mmHg 48%
    15:00 +26°C° 0.1 mm 5 mps 705 mmHg 48%
    16:00 +26°C° 0.1 mm 5 mps 705 mmHg 47%
    17:00 +25°C° 0.2 mm 5 mps 705 mmHg 49%
    18:00 +25°C° 0.2 mm 4 mps 706 mmHg 52%
    19:00 +24°C° 0.2 mm 3 mps 706 mmHg 54%
    20:00 +24°C° 0.4 mm 2 mps 706 mmHg 54%
    21:00 +24°C° 0.4 mm 2 mps 706 mmHg 53%
    22:00 +23°C° 0.4 mm 1 mps 707 mmHg 53%
    23:00 +23°C° 0.1 mm 1 mps 706 mmHg 53%

    1 March, Thursday

    Time Temperature Precipitation Wind Pressure Humidity
    00:00 +23°C° 0.1 mm 2 mps 706 mmHg 53%
    01:00 +23°C° 0.1 mm 2 mps 706 mmHg 53%
    02:00 +23°C° 0 mm 1 mps 706 mmHg 53%
    03:00 +23°C° 0 mm 1 mps 706 mmHg 54%
    04:00 +23°C° 0 mm 1 mps 706 mmHg 54%
    05:00 +23°C° 0 mm 1 mps 706 mmHg 51%
    06:00 +24°C° 0 mm 2 mps 706 mmHg 48%
    07:00 +24°C° 0 mm 2 mps 707 mmHg 45%
    08:00 +25°C° 0 mm 2 mps 707 mmHg 40%
    09:00 +27°C° 0 mm 2 mps 707 mmHg 35%
    10:00 +28°C° 0 mm 2 mps 707 mmHg 30%
    11:00 +29°C° 0 mm 2 mps 706 mmHg 28%
    12:00 +29°C° 0 mm 2 mps 706 mmHg 26%
    13:00 +30°C° 0 mm 2 mps 705 mmHg 24%
    14:00 +31°C° 0 mm 3 mps 705 mmHg 24%
    15:00 +31°C° 0 mm 3 mps 705 mmHg 24%
    16:00 +31°C° 0 mm 3 mps 704 mmHg 24%
    17:00 +30°C° 0 mm 3 mps 705 mmHg 27%
    18:00 +29°C° 0 mm 3 mps 705 mmHg 31%
    19:00 +28°C° 0 mm 2 mps 706 mmHg 34%
    20:00 +28°C° 0 mm 2 mps 706 mmHg 36%
    21:00 +27°C° 0 mm 2 mps 707 mmHg 38%
    22:00 +27°C° 0 mm 2 mps 707 mmHg 40%
    23:00 +26°C° 0 mm 2 mps 707 mmHg 42%
    Show more